| time (UTC) | temp C | wind direction | speed KPH | gust KPH | rain 1hr cm | rain 24hr cm | rain mn cm | humidity % | barometer mb |
| 20260906171538 | 22 | 59 | 0.0 | 1.6 | 0.00 | 0.00 | 0.00 | 46 | 1023.6 |
| 20260906170037 | 22 | 58 | 0.0 | 3.2 | 0.00 | 0.00 | 0.00 | 44 | 1023.7 |
| 20260906164537 | 23 | 63 | 0.0 | 1.6 | 0.00 | 0.00 | 0.00 | 43 | 1023.6 |
| 20260906163036 | 23 | 77 | 0.0 | 3.2 | 0.00 | 0.00 | 0.00 | 40 | 1023.5 |
| 20260906161635 | 24 | 70 | 1.6 | 6.4 | 0.00 | 0.00 | 0.00 | 40 | 1023.4 |
| 20260906160037 | 25 | 112 | 0.0 | 4.8 | 0.00 | 0.00 | 0.00 | 38 | 1023.4 |
| 20260906154535 | 25 | 67 | 0.0 | 3.2 | 0.00 | 0.00 | 0.00 | 40 | 1023.5 |
| 20260906153044 | 25 | 89 | 0.0 | 3.2 | 0.00 | 0.00 | 0.00 | 40 | 1023.4 |
| 20260906151548 | 25 | 67 | 0.0 | 3.2 | 0.00 | 0.00 | 0.00 | 40 | 1023.5 |
| 20260906150035 | 24 | 65 | 0.0 | 3.2 | 0.00 | 0.00 | 0.00 | 38 | 1023.7 |
| 20260906144532 | 25 | 71 | 0.0 | 4.8 | 0.00 | 0.00 | 0.00 | 41 | 1023.9 |
| 20260906143037 | 25 | 74 | 0.0 | 4.8 | 0.00 | 0.00 | 0.00 | 41 | 1024.0 |
| 20260906141526 | 25 | 120 | 0.0 | 3.2 | 0.00 | 0.00 | 0.00 | 38 | 1024.1 |
| 20260906140031 | 25 | 66 | 0.0 | 4.8 | 0.00 | 0.00 | 0.00 | 40 | 1024.3 |
| 20260906134524 | 26 | 67 | 0.0 | 3.2 | 0.00 | 0.00 | 0.00 | 37 | 1024.4 |
| 20260906133026 | 25 | 67 | 0.0 | 3.2 | 0.00 | 0.00 | 0.00 | 39 | 1024.6 |
| 20260906131524 | 25 | 60 | 0.0 | 4.8 | 0.00 | 0.00 | 0.00 | 41 | 1024.7 |
| 20260906130017 | 25 | 60 | 0.0 | 4.8 | 0.00 | 0.00 | 0.00 | 39 | 1025.0 |
| 20260906124514 | 25 | 55 | 0.0 | 4.8 | 0.00 | 0.00 | 0.00 | 42 | 1025.0 |
| 20260906123027 | 25 | 54 | 0.0 | 6.4 | 0.00 | 0.00 | 0.00 | 42 | 1025.2 |
| 20260906121511 | 24 | 346 | 1.6 | 6.4 | 0.00 | 0.00 | 0.00 | 40 | 1025.3 |
| 20260906120008 | 24 | 342 | 0.0 | 1.6 | 0.00 | 0.00 | 0.00 | 44 | 1025.4 |
| 20260906114506 | 23 | 342 | 0.0 | 4.8 | 0.00 | 0.00 | 0.00 | 45 | 1025.6 |
| 20260906113004 | 23 | 29 | 0.0 | 8.0 | 0.00 | 0.00 | 0.00 | 46 | 1025.7 |
| 20260906111502 | 23 | 201 | 0.0 | 4.8 | 0.00 | 0.00 | 0.00 | 43 | 1025.8 |
| 20260906110000 | 23 | 78 | 0.0 | 3.2 | 0.00 | 0.00 | 0.00 | 47 | 1025.8 |
| 20260906103101 | 22 | 78 | 0.0 | 4.8 | 0.00 | 0.00 | 0.00 | 49 | 1026.2 |
| 20260906101647 | 22 | 80 | 0.0 | 4.8 | 0.00 | 0.00 | 0.00 | 53 | 1026.3 |
| 20260906100040 | 21 | 69 | 0.0 | 3.2 | 0.00 | 0.00 | 0.00 | 55 | 1026.7 |
| 20260906094538 | 21 | 69 | 0.0 | 3.2 | 0.00 | 0.00 | 0.00 | 58 | 1026.9 |
| 20260906093039 | 20 | 66 | 0.0 | 4.8 | 0.00 | 0.00 | 0.00 | 56 | 1026.8 |
| 20260906091533 | 20 | 69 | 0.0 | 6.4 | 0.00 | 0.00 | 0.00 | 58 | 1027.0 |
| 20260906090050 | 19 | 78 | 0.0 | 4.8 | 0.00 | 0.00 | 0.00 | 61 | 1027.1 |
| 20260906084528 | 18 | 77 | 0.0 | 4.8 | 0.00 | 0.00 | 0.00 | 63 | 1027.0 |
| 20260906083032 | 18 | 58 | 0.0 | 4.8 | 0.00 | 0.00 | 0.00 | 63 | 1027.0 |
| 20260906081523 | 18 | 59 | 0.0 | 4.8 | 0.00 | 0.00 | 0.00 | 65 | 1027.2 |
| 20260906080020 | 17 | 47 | 0.0 | 6.4 | 0.00 | 0.00 | 0.00 | 68 | 1027.3 |
| 20260906074517 | 16 | 279 | 0.0 | 3.2 | 0.00 | 0.00 | 0.00 | 70 | 1027.4 |
| 20260906073013 | 16 | 279 | 0.0 | 1.6 | 0.00 | 0.00 | 0.00 | 73 | 1027.4 |
| 20260906071509 | 14 | 279 | 0.0 | 0.0 | 0.00 | 0.00 | 0.00 | 77 | 1027.5 |
| 20260906070005 | 13 | 279 | 0.0 | 3.2 | 0.00 | 0.00 | 0.00 | 79 | 1027.4 |
| 20260906064502 | 13 | 279 | 0.0 | 1.6 | 0.00 | 0.00 | 0.00 | 81 | 1027.5 |
| 20260906063101 | 12 | 279 | 0.0 | 1.6 | 0.00 | 0.00 | 0.00 | 83 | 1027.5 |
| 20260906061604 | 11 | 279 | 0.0 | 1.6 | 0.00 | 0.00 | 0.00 | 85 | 1027.5 |
| 20260906060059 | 11 | 279 | 0.0 | 1.6 | 0.00 | 0.00 | 0.00 | 87 | 1027.6 |
| 20260906054557 | 10 | 279 | 0.0 | 0.0 | 0.00 | 0.00 | 0.00 | 89 | 1027.3 |
| 20260906053057 | 9 | 279 | 0.0 | 0.0 | 0.00 | 0.00 | 0.00 | 90 | 1027.3 |
| 20260906051603 | 9 | 279 | 0.0 | 0.0 | 0.00 | 0.00 | 0.00 | 90 | 1027.1 |
| 20260906050106 | 9 | 279 | 0.0 | 0.0 | 0.00 | 0.00 | 0.00 | 90 | 1027.0 |
| 20260906044555 | 9 | 279 | 0.0 | 0.0 | 0.00 | 0.10 | 0.00 | 90 | 1027.0 |
| 20260906043059 | 9 | 279 | 0.0 | 0.0 | 0.00 | 0.10 | 0.00 | 89 | 1027.1 |
| 20260906041557 | 9 | 279 | 0.0 | 0.0 | 0.00 | 0.10 | 0.00 | 89 | 1027.0 |
| 20260906040051 | 9 | 279 | 0.0 | 0.0 | 0.00 | 0.10 | 0.00 | 89 | 1026.9 |
| 20260906034607 | 9 | 279 | 0.0 | 0.0 | 0.00 | 0.64 | 0.00 | 89 | 1027.0 |
| 20260906033047 | 10 | 279 | 0.0 | 0.0 | 0.00 | 0.64 | 0.00 | 88 | 1026.8 |
| 20260906031550 | 10 | 279 | 0.0 | 0.0 | 0.00 | 0.64 | 0.00 | 88 | 1026.9 |
| 20260906030044 | 10 | 279 | 0.0 | 0.0 | 0.00 | 0.64 | 0.00 | 88 | 1026.9 |
| 20260906024542 | 10 | 279 | 0.0 | 0.0 | 0.00 | 1.24 | 0.00 | 88 | 1026.7 |
| 20260906023041 | 10 | 279 | 0.0 | 0.0 | 0.00 | 1.24 | 0.00 | 88 | 1026.8 |
| 20260906021540 | 10 | 279 | 0.0 | 0.0 | 0.00 | 1.24 | 0.00 | 88 | 1026.7 |
| 20260906020040 | 10 | 279 | 0.0 | 0.0 | 0.00 | 1.24 | 0.00 | 88 | 1026.6 |
| 20260906014540 | 10 | 279 | 0.0 | 0.0 | 0.00 | 1.24 | 0.00 | 88 | 1026.6 |
| 20260906013056 | 10 | 279 | 0.0 | 0.0 | 0.00 | 1.24 | 0.00 | 88 | 1026.6 |
| 20260906011545 | 10 | 279 | 0.0 | 0.0 | 0.00 | 1.24 | 0.00 | 88 | 1026.5 |
| 20260906010035 | 11 | 279 | 0.0 | 0.0 | 0.00 | 1.24 | 0.00 | 87 | 1026.5 |
| 20260906004533 | 11 | 279 | 0.0 | 0.0 | 0.00 | 1.24 | 0.00 | 88 | 1026.4 |
| 20260906003036 | 11 | 279 | 0.0 | 0.0 | 0.00 | 1.24 | 0.00 | 87 | 1026.5 |
| 20260906001532 | 11 | 279 | 0.0 | 0.0 | 0.00 | 1.24 | 0.00 | 87 | 1026.6 |
| 20260906000030 | 11 | 279 | 0.0 | 0.0 | 0.00 | 1.24 | 0.00 | 87 | 1026.5 |
| 20260905234528 | 11 | 279 | 0.0 | 0.0 | 0.00 | 1.24 | 0.00 | 86 | 1026.4 |
| 20260905233028 | 11 | 279 | 0.0 | 0.0 | 0.00 | 1.24 | 0.00 | 86 | 1026.2 |
| 20260905231528 | 12 | 279 | 0.0 | 0.0 | 0.00 | 1.24 | 0.00 | 86 | 1026.0 |
| 20260905230024 | 12 | 279 | 0.0 | 0.0 | 0.00 | 1.24 | 0.00 | 85 | 1026.1 |
| 20260905224521 | 12 | 279 | 0.0 | 0.0 | 0.00 | 1.24 | 0.00 | 85 | 1025.9 |
| 20260905223019 | 12 | 279 | 0.0 | 0.0 | 0.00 | 1.24 | 0.00 | 84 | 1025.9 |
| 20260905221516 | 12 | 279 | 0.0 | 0.0 | 0.00 | 1.24 | 0.00 | 83 | 1025.7 |
| 20260905220014 | 12 | 279 | 0.0 | 1.6 | 0.00 | 1.24 | 0.00 | 82 | 1025.5 |
| 20260905214512 | 13 | 279 | 0.0 | 0.0 | 0.00 | 1.24 | 1.24 | 81 | 1025.3 |
| 20260905213008 | 13 | 279 | 0.0 | 0.0 | 0.00 | 1.24 | 1.24 | 81 | 1025.1 |
| 20260905211507 | 13 | 279 | 0.0 | 0.0 | 0.00 | 1.24 | 1.24 | 80 | 1024.9 |
| 20260905210005 | 14 | 279 | 0.0 | 0.0 | 0.00 | 1.24 | 1.24 | 78 | 1024.8 |
| 20260905204503 | 14 | 279 | 0.0 | 0.0 | 0.00 | 1.24 | 1.24 | 77 | 1024.7 |
| 20260905203003 | 15 | 279 | 0.0 | 0.0 | 0.00 | 1.24 | 1.24 | 76 | 1024.6 |
| 20260905201502 | 15 | 279 | 0.0 | 0.0 | 0.00 | 1.24 | 1.24 | 75 | 1024.5 |
| 20260905200107 | 15 | 279 | 0.0 | 0.0 | 0.00 | 1.24 | 1.24 | 74 | 1024.3 |
| 20260905194558 | 16 | 279 | 0.0 | 0.0 | 0.00 | 1.24 | 1.24 | 71 | 1024.1 |
| 20260905193057 | 16 | 279 | 0.0 | 0.0 | 0.00 | 1.24 | 1.24 | 70 | 1024.2 |
| 20260905191556 | 16 | 279 | 0.0 | 0.0 | 0.00 | 1.24 | 1.24 | 68 | 1024.0 |
| 20260905190055 | 17 | 279 | 0.0 | 0.0 | 0.00 | 1.24 | 1.24 | 65 | 1023.8 |
| 20260905184554 | 18 | 279 | 0.0 | 0.0 | 0.00 | 1.24 | 1.24 | 61 | 1023.7 |
| 20260905183051 | 19 | 279 | 0.0 | 0.0 | 0.00 | 1.24 | 1.24 | 58 | 1023.4 |
| 20260905181549 | 20 | 279 | 0.0 | 0.0 | 0.00 | 1.24 | 1.24 | 55 | 1023.3 |
| 20260905180048 | 21 | 279 | 0.0 | 0.0 | 0.00 | 1.24 | 1.24 | 52 | 1023.1 |
| 20260905174548 | 21 | 279 | 0.0 | 6.4 | 0.00 | 1.24 | 1.24 | 49 | 1022.9 |
| 20260905173044 | 21 | 279 | 0.0 | 3.2 | 0.00 | 1.24 | 1.24 | 49 | 1022.7 |